Location: ??????
(38.1303°N, 24.0039°E)
Time: 03:38:42
(UTC+00:00)

OAO 1 - Pass Details

Date: 20 June 2021
Orbit: 774 x 783 km, 35.0° (Epoch: 05 August)

Event Time Altitude Azimuth Distance (km) Brightness Sun altitude
Exits shadow 00:47:15 33° 252° (WSW) 1,268 5.2 -20.0°
Maximum altitude 00:49:35 64° 183° (S) 856 4.5 -19.8°
Drops below altitude 10° 00:55:00 10° 103° (ESE) 2,316 7.3 -19.2°
Sets 00:57:30 0° 101° (E) 3,245 8.1 -18.9°
